Content
SEND FEEDBACK

Daily
Averages
Monthly
Summary
United States of America

ANN ARBOR, MICHIGAN


Home > North America > United States > Michigan
Elevation: 231 meters     Latitude: 42 17N     Longitude: 083 43W

WEATHER
 
SELECT A DAY
Number of Records: 203,747;   Date Range: 1/1/95 - 8/17/14
 
SHARE

PRINT THIS DATA

[ ← Previous Day ]
WEATHER ALMANAC - 30 APRIL, 2013
[ Next Day → ]
[ °F ]   °C
Weather ElementAverageHighLow
Temperature16.3 °C22.8 °C (3:53 pm)11.1 °C (5:53 am)
Dewpoint11.5 °C12.8 °C (3:53 pm)10 °C (5:53 am)
Humidity74.5 %93 % (4:53 am)53 % (3:53 pm)
Barometer1016.3 hPa1018.3 hPa (11:53 am)1014.6 hPa (1:53 am)
Wind Speed12.6 km/h27.8 km/h (2:53 pm)
Wind Gust40.7 km/h (2:53 pm)
Weather ElementAverage
Visibility13.8 km
Wind DirectionSSE (159.5 °)

Weather ElementTotal
Precipitation---
Heating Degree Days1.4 (Base 18.3)
Growing Degree Days6.9 (Base 10)
Averaged from 22 records on 30 April, 2013
WEATHER CONDITIONS BREAKOUT
WIND DIRECTION BREAKOUT
WEATHER BY HOUR - 30 APRIL, 2013
[ °F ]   °C
Local TimeTemperatureDewpointHumidityBarometerVisibilityWind DirectionWind SpeedGust SpeedPrecipitationEventsConditions
1:53 AM13.9 °C11.7 °C87 %1014.6 hPa12.9 kmSouth (190°)7.4 km/hPartly Cloudy
2:53 AM12.8 °C11.1 °C89 %1014.6 hPa11.3 kmSSW (200°)9.3 km/hPartly Cloudy
3:53 AM12.2 °C10.6 °C90 %1014.9 hPa11.3 kmSW (220°)5.6 km/hPartly Cloudy
4:53 AM11.7 °C10.6 °C93 %1014.9 hPa8 kmSouth (190°)7.4 km/hClear
5:53 AM11.1 °C10 °C93 %1014.9 hPa9.7 kmSouth (170°)9.3 km/hClear
6:53 AM11.7 °C10 °C89 %1014.9 hPa6.4 kmSouth (180°)9.3 km/hClear
7:53 AM12.8 °C11.1 °C89 %1016.3 hPa8 kmSSW (210°)11.1 km/hOvercast
8:53 AM15 °C11.7 °C81 %1016.6 hPa12.9 kmSSW (200°)16.7 km/hMostly Cloudy
9:53 AM16.7 °C12.2 °C75 %1017.3 hPa16.1 kmSouth (190°)9.3 km/hMostly Cloudy
10:53 AM16.7 °C11.7 °C72 %1017.9 hPa16.1 kmSSW (210°)16.7 km/hPartly Cloudy
11:53 AM16.7 °C11.1 °C70 %1018.3 hPa16.1 kmSouth (170°)11.1 km/hMostly Cloudy
12:53 PM16.7 °C11.7 °C72 %1016.9 hPa16.1 kmSE (130°)16.7 km/h0 mmMostly Cloudy
1:53 PM18.9 °C11.7 °C63 %1016.6 hPa16.1 kmSSE (160°)25.9 km/h33.3 km/hClear
2:53 PM21.1 °C12.2 °C57 %1016.3 hPa16.1 kmSouth (170°)27.8 km/h40.7 km/hClear
3:53 PM22.8 °C12.8 °C53 %1015.9 hPa16.1 kmSouth (170°)18.5 km/h33.3 km/hClear
4:53 PM22.8 °C12.8 °C53 %1015.6 hPa16.1 kmSSE (150°)20.4 km/h38.9 km/hClear
5:53 PM22.2 °C12.2 °C53 %1015.6 hPa16.1 kmSouth (170°)20.4 km/hClear
6:53 PM21.7 °C12.2 °C55 %1015.9 hPa16.1 kmSSE (150°)16.7 km/hClear
8:53 PM16.7 °C11.7 °C72 %1017.3 hPa16.1 kmSSE (150°)7.4 km/hClear
9:53 PM16.1 °C11.1 °C72 %1017.6 hPa16.1 kmSE (130°)7.4 km/hClear
10:53 PM15 °C11.1 °C78 %1017.9 hPa16.1 kmCalmClear
11:53 PM13.9 °C11.1 °C83 %1018.3 hPa16.1 kmCalmClear
Hourly data recorded from KARB, located 0 kilometers away from Ann Arbor, Michigan







STORIES FROM OUR PARTNERS